Zurück zum Katalog

ATLAS 2 CENTAUR R/B

AktivHEO
NORAD 23968·ROCKET BODY·🇺🇸 United States

Gestartet Jul 25, 1996 von Cape Canaveral Space Force Station

Loading…

Nächste Überflüge (nächste 24 Stunden)

TLE

AktuellSource: Space-Track

Epoche: Sep 14, 2026, 08:01 UTC

1 23968U 96042B   26257.33433569  .00001442  00000-0  82079-3 0  9997
2 23968  26.6891 135.4812 6323350 232.5818  51.5600  3.52129382360895

Verfolge ATLAS 2 CENTAUR R/B in Echtzeit mit AllMySat

Download on the App Store